Terminal Aerodrome Forecast
Issued by NWS

Home | Current Version | Previous Version | Text Only | Print | Product List | Glossary On
Versions: 1 2 3 4 5 6 7 8 9 10 11 12 13 14 15 16 17
000
FTUS42 KKEY 290832 AAA
TAFMTH
TAF AMD
KMTH 290832Z 2909/3006 VRB04KT P6SM FEW025
     FM291600 11008KT P6SM SCT025
     FM291900 11007KT P6SM SCT023 BKN030
     FM300100 09005KT P6SM FEW023=

USA.gov is the U.S. government's official web portal to all federal, state and local government web resources and services.